Weather History for Rutland, VT

Change the Weather History Date:

Saturday, June 28, 2014

  Actual Average Record
Temperature  
Mean Temperature 67 °F -  
Max Temperature 82 °F - 92 °F (1991)
Min Temperature 52 °F - 42 °F (1958)
Degree Days  
Heating Degree Days 0    
Month to date heating degree days 69  
Since 1 June heating degree days 69  
Since 1 July heating degree days 7966  
Cooling Degree Days 2    
Month to date cooling degree days 40  
Year to date cooling degree days 47  
Since 1 June cooling degree days 40  
Growing Degree Days 16 (Base 50)    
Moisture  
Dew Point 54 °F    
Average Humidity 62    
Maximum Humidity 89    
Minimum Humidity 35    
Precipitation  
Precipitation 0.00 in - 1.70 in (1999)
Month to date precipitation 3.56  
Year to date precipitation 14.10  
Sea Level Pressure  
Sea Level Pressure 30.26 in    
Wind  
Wind Speed 6 mph (SE)    
Max Wind Speed 12 mph    
Max Gust Speed 16 mph    
Visibility 10 miles    
Events      
T = Trace of Precipitation, MM = Missing Value Source: NWS Daily Summary

Daily Weather History Graph

Daily Weather History Graph

Search for Another Location

Airport:

Trip Planner

Search our weather history database for the weather conditions in past years. The results will help you decide how hot, cold, wet, or windy it might be!

Date:

Astronomy

Jun. 28, 2014 Rise Set
Actual Time 5:13 AM EDT 8:36 PM EDT
Civil Twilight 4:37 AM EDT 9:12 PM EDT
Nautical Twilight 3:50 AM EDT 9:59 PM EDT
Astronomical Twilight 2:51 AM EDT 10:57 PM EDT
Moon 6:37 AM EDT (6/28) 9:15 PM EDT (6/28)
Length of Visible Light 16h 35m
Length of Day
15h 23m
New Moon, 2% of the Moon is Illuminated
Jun 28
New Moon
Jul 5
First Quarter
Jul 12
Full
Jul 18
Last Quarter
Jul 26
New

Hourly Weather History & Observations

Time (EDT) Temp. Heat Index Dew Point Humidity Pressure Visibility Wind Dir Wind Speed Gust Speed Precip Events Conditions
12:15 AM 60.8 °F - 53.6 °F 77% 30.22 in 10.0 mi SE 10.4 mph - N/A   Clear
12:35 AM 59.0 °F - 53.6 °F 82% 30.22 in 10.0 mi ESE 9.2 mph - N/A   Clear
12:55 AM 57.2 °F - 53.6 °F 88% 30.22 in 10.0 mi SE 10.4 mph - N/A   Clear
1:15 AM 57.2 °F - 53.6 °F 88% 30.23 in 10.0 mi SSE 6.9 mph - N/A   Clear
1:35 AM 57.2 °F - 53.6 °F 88% 30.23 in 10.0 mi SE 9.2 mph - N/A   Clear
1:55 AM 57.2 °F - 51.8 °F 82% 30.24 in 10.0 mi ESE 9.2 mph - N/A   Clear
2:15 AM 55.4 °F - 51.8 °F 88% 30.24 in 10.0 mi SE 9.2 mph - N/A   Clear
2:35 AM 55.4 °F - 51.8 °F 88% 30.24 in 10.0 mi ESE 9.2 mph - N/A   Clear
2:55 AM 55.4 °F - 51.8 °F 88% 30.25 in 10.0 mi ESE 9.2 mph - N/A   Clear
3:15 AM 55.4 °F - 51.8 °F 88% 30.25 in 10.0 mi SSE 6.9 mph - N/A   Clear
3:35 AM 53.6 °F - 51.8 °F 94% 30.26 in 10.0 mi SSE 4.6 mph - N/A   Clear
3:55 AM 53.6 °F - 50.0 °F 88% 30.25 in 10.0 mi ESE 8.1 mph - N/A   Clear
4:15 AM 53.6 °F - 50.0 °F 88% 30.26 in 10.0 mi SE 9.2 mph - N/A   Clear
4:35 AM 53.6 °F - 50.0 °F 88% 30.26 in 10.0 mi SSE 6.9 mph - N/A   Clear
4:55 AM 51.8 °F - 48.2 °F 88% 30.26 in 10.0 mi SE 9.2 mph - N/A   Clear
5:15 AM 51.8 °F - 48.2 °F 88% 30.27 in 10.0 mi SE 6.9 mph - N/A   Clear
5:35 AM 51.8 °F - 48.2 °F 88% 30.28 in 10.0 mi SE 8.1 mph - N/A   Clear
5:55 AM 51.8 °F - 48.2 °F 88% 30.28 in 10.0 mi SSE 8.1 mph - N/A   Clear
6:15 AM 53.6 °F - 50.0 °F 88% 30.29 in 10.0 mi SE 8.1 mph - N/A   Clear
6:35 AM 55.4 °F - 50.0 °F 82% 30.29 in 10.0 mi SE 11.5 mph - N/A   Clear
6:55 AM 55.4 °F - 51.8 °F 88% 30.30 in 10.0 mi SE 5.8 mph - N/A   Clear
7:15 AM 57.2 °F - 51.8 °F 82% 30.30 in 10.0 mi SE 4.6 mph - N/A   Clear
7:35 AM 59.0 °F - 53.6 °F 82% 30.30 in 10.0 mi Calm Calm - N/A   Clear
7:55 AM 60.8 °F - 53.6 °F 77% 30.31 in 10.0 mi Calm Calm - N/A   Clear
8:15 AM 62.6 °F - 55.4 °F 77% 30.30 in 9.0 mi Calm Calm - N/A   Clear
8:35 AM 64.4 °F - 53.6 °F 68% 30.30 in 10.0 mi Calm Calm - N/A   Clear
8:55 AM 66.2 °F - 55.4 °F 68% 30.30 in 10.0 mi Calm Calm - N/A   Clear
9:15 AM 68.0 °F - 57.2 °F 68% 30.30 in 10.0 mi Calm Calm - N/A   Clear
9:35 AM 71.6 °F - 57.2 °F 60% 30.30 in 10.0 mi Calm Calm - N/A   Clear
9:55 AM 71.6 °F - 59.0 °F 64% 30.30 in 10.0 mi Calm Calm - N/A   Clear
10:15 AM 75.2 °F - 57.2 °F 53% 30.29 in 10.0 mi Calm Calm - N/A   Clear
10:35 AM 75.2 °F - 57.2 °F 53% 30.29 in 10.0 mi Calm Calm - N/A   Clear
10:55 AM 75.2 °F - 57.2 °F 53% 30.30 in 7.0 mi Calm Calm - N/A   Clear
11:15 AM 75.2 °F - 57.2 °F 53% 30.29 in 10.0 mi Calm Calm - N/A   Clear
11:35 AM 78.8 °F - 53.6 °F 42% 30.28 in 10.0 mi Calm Calm - N/A   Clear
11:55 AM 78.8 °F - 53.6 °F 42% 30.28 in 10.0 mi North 5.8 mph - N/A   Clear
12:15 PM 78.8 °F - 50.0 °F 36% 30.28 in 10.0 mi Calm Calm - N/A   Clear
12:35 PM 78.8 °F - 51.8 °F 39% 30.27 in 10.0 mi South 3.5 mph - N/A   Clear
12:55 PM 80.6 °F - 50.0 °F 34% 30.27 in 10.0 mi NE 3.5 mph - N/A   Clear
1:15 PM 80.6 °F - 48.2 °F 32% 30.27 in 10.0 mi Calm Calm - N/A   Clear
1:35 PM 80.6 °F - 51.8 °F 37% 30.27 in 10.0 mi NE 4.6 mph - N/A   Clear
1:55 PM 80.6 °F - 50.0 °F 34% 30.26 in 10.0 mi WNW 3.5 mph - N/A   Clear
2:15 PM 80.6 °F - 50.0 °F 34% 30.25 in 10.0 mi WNW 6.9 mph - N/A   Clear
2:35 PM 80.6 °F - 51.8 °F 37% 30.25 in 10.0 mi North 5.8 mph - N/A   Clear
2:55 PM 82.4 °F 81.4 °F 53.6 °F 37% 30.25 in 10.0 mi West 8.1 mph - N/A   Clear
3:15 PM 80.6 °F - 51.8 °F 37% 30.24 in 10.0 mi Calm Calm - N/A   Clear
3:35 PM 82.4 °F - 51.8 °F 35% 30.24 in 10.0 mi WNW 5.8 mph - N/A   Clear
3:55 PM 80.6 °F 80.3 °F 53.6 °F 39% 30.24 in 10.0 mi NNW 8.1 mph - N/A   Clear
4:35 PM 80.6 °F 80.3 °F 53.6 °F 39% 30.24 in 10.0 mi NW 3.5 mph - N/A   Clear
4:55 PM 80.6 °F 80.3 °F 53.6 °F 39% 30.25 in 10.0 mi WNW 8.1 mph - N/A   Clear
5:15 PM 80.6 °F 80.3 °F 53.6 °F 39% 30.24 in 10.0 mi West 5.8 mph - N/A   Clear
5:35 PM 80.6 °F 80.3 °F 53.6 °F 39% 30.24 in 10.0 mi NW 6.9 mph - N/A   Clear
5:55 PM 78.8 °F - 53.6 °F 42% 30.25 in 10.0 mi West 4.6 mph - N/A   Clear
6:15 PM 78.8 °F - 53.6 °F 42% 30.25 in 10.0 mi Calm Calm - N/A   Clear
6:35 PM 78.8 °F - 55.4 °F 44% 30.24 in 10.0 mi Calm Calm - N/A   Clear
6:55 PM - - - N/A% 30.23 in 10.0 mi Calm Calm - N/A   Clear
7:15 PM 73.4 °F - 60.8 °F 65% 30.24 in 10.0 mi ESE 5.8 mph - N/A   Clear
7:35 PM 71.6 °F - 60.8 °F 69% 30.24 in 10.0 mi SE 8.1 mph - N/A   Partly Cloudy
7:55 PM - - - N/A% 30.23 in 10.0 mi ESE 9.2 mph - N/A   Clear
8:15 PM - - - N/A% 30.23 in 10.0 mi SE 6.9 mph - N/A   Clear
8:35 PM 69.8 °F - 59.0 °F 68% 30.24 in 10.0 mi SE 10.4 mph - N/A   Clear
8:55 PM 68.0 °F - 59.0 °F 73% 30.24 in 10.0 mi SE 10.4 mph - N/A   Clear
9:15 PM 68.0 °F - 59.0 °F 73% 30.25 in 10.0 mi SE 10.4 mph - N/A   Clear
9:35 PM 66.2 °F - 59.0 °F 78% 30.25 in 10.0 mi ESE 10.4 mph - N/A   Clear
9:55 PM 66.2 °F - 57.2 °F 73% 30.25 in 10.0 mi SE 11.5 mph - N/A   Clear
10:15 PM 66.2 °F - 57.2 °F 73% 30.25 in 10.0 mi SE 10.4 mph 16.1 mph N/A   Clear
10:35 PM 64.4 °F - 57.2 °F 77% 30.25 in 10.0 mi SE 9.2 mph - N/A   Clear
10:55 PM 64.4 °F - 57.2 °F 77% 30.25 in 10.0 mi ESE 11.5 mph - N/A   Clear
11:15 PM 62.6 °F - 57.2 °F 82% 30.25 in 10.0 mi SE 13.8 mph - N/A   Clear
11:35 PM 62.6 °F - 55.4 °F 77% 30.25 in 10.0 mi SE 10.4 mph - N/A   Clear
11:55 PM 62.6 °F - 55.4 °F 77% 30.25 in 10.0 mi SSE 10.4 mph - N/A   Clear